METEOR 2-11 DEB, 43311

Orbit data source: Space-Track

METEOR 2-11 DEB, 43311 is space debris in LEO originally from a launch on Thu, 05 Jul 1984 UTC launched from the Plesetsk Missile And Space Complex (PKMTR). Debris objects in space refer to the collection of defunct objects orbiting the Earth. Examples of debris include non-operational satellites, rocket bodies, and fragments generated from explosions, collisions, or faulty payload assembly.

Loading next visibility...
Identifier
43311, 1984-072W
Orbit
LEO
Country
Flag of CISCIS
Related business
Manufacturer
Unknown
Mission
Spacecraft
Bus & Motor
Unknown
Mass
Unknown
Launch date (UTC)
1984-07-05 (42 years ago)
Launch vehicle
Unknown
Launch site
Plesetsk Missile And Space Complex (PKMTR)
Object type
Payload
Rocket body
Debris
Shape & HBR
Unknown shape, 0.1 m
Radar Cross Section
Small (<0.1 m²)

Expand to show TLE details & history
Last TLE update: 3 weeks ago

TLE from 3 weeks ago
0 METEOR 2-11 DEB
1 43311U 84072W   26190.76957197  .00001687  00000-0  11420-2 0  9994
2 43311  82.5372 359.8409 0023483 310.2964  49.6152 13.99632289262272
Epoch: 2026-07-09T18:28Z
TLE epoch observation values (Epoch: 2026-07-09T18:28:11.018Z)
Latitude
-0.00001°
Longitude
155.08825°
Altitude
886.947 km
Speed
7.414 km/s
True Right ascension
23h 59m 21s
True Declination
0° 00' 00"
Sunlit
Object was in daylight at epoch
Visualization orbit readout
Latitude
Unknown
Longitude
Unknown
Altitude
Unknown
Speed
Unknown
Apparent Right ascension
Unknown
Apparent Declination
Unknown
Sunlit
N/A
Visualization observer readout
Local Sidereal Time
05:28:27
Azimuth
Unknown
Elevation
Unknown
Doppler factor
Unknown
Orbital elements
Apogee altitude
909.273 km
Perigee altitude
875.127 km
Semi-major axis
7,270.337 km
Eccentricity
0.00235
Inclination
82.5372°
RAAN
359.8409°
Arg. of periapsis
310.2964°
True anomaly
49.82056°
Mean anomaly
49.6152°
Eccentric anomaly
49.71784°
Mean motion
3.50116 °/min
Orbital period
102.82 mins
BSTAR
0.001142
Loading maneuver chart data...
Computing Atmospheric mass density...
Loading historical data...
Loading historical data...
Loading historical data...
Loading historical data...
Loading historical data...
Loading historical data...
Loading historical data...

Documentation

Showing up to 5 results
|